Location: Capel Gartheli
(52.1833°N, 4.0667°W)
Time: 11:46:08
(UTC+00:00)

ADEOS II - Pass Details

Date: 18 February 2020
Orbit: 799 x 801 km, 98.5° (Epoch: 09 April)

Event Time Altitude Azimuth Distance (km) Brightness Sun altitude
Rises 04:50:46 0° 6° (N) 3,326 5.5 -24.5°
Reaches altitude 10° 04:53:52 10° 347° (NNW) 2,391 4.5 -24.0°
Enters shadow 04:55:18 14° 333° (NNW) 2,090 4.1 -23.8°
